Location: Bucharest
(44.4268°N, 26.1025°E)
Time: 17:47:07
(UTC+03:00)

SPROUT - Pass Details

Date: 27 June 2022
Orbit: 588 x 598 km, 97.9° (Epoch: 19 August)

Event Time Altitude Azimuth Distance (km) Brightness Sun altitude
Exits shadow 01:04:08 18° 95° (E) 1,460 ? -22.2°
Maximum altitude 01:05:38 22° 66° (ENE) 1,305 ? -22.2°
Drops below altitude 10° 01:08:51 10° 15° (NNE) 1,925 ? -22.2°
Sets 01:11:23 0° 0° (N) 2,831 ? -22.2°
